Location: Unspecified
(51.0000°N, 12.0000°E)
Time: 18:28:59
(UTC+01:00)

ISS - Pass Details

Date: 05 January 2018
Orbit: 402 x 407 km, 51.6° (Epoch: 19 January)

Event Time Altitude Azimuth Distance (km) Brightness Sun altitude
Exits shadow 06:03:45 81° 331° (NNW) 417 -4.0 -19.5°
Maximum altitude 06:03:48 82° 352° (N) 416 -3.9 -19.5°
Drops below altitude 10° 06:07:06 10° 81° (E) 1,471 0.0 -18.9°
Sets 06:09:11 0° 83° (E) 2,334 1.3 -18.6°
